owner,sensor,date,latitude,longitude,vertical_datum,sea_water_temperature,qcFlag 
Scripps,ioos:station:wmo:42099:1,2017-05-01T00:30:00Z,27.3400,-84.2750,0.0,24.15,2 
Scripps,ioos:station:wmo:42099:1,2017-05-01T02:30:00Z,27.3400,-84.2750,0.0,24.05,2 
Scripps,ioos:station:wmo:42099:1,2017-05-01T03:30:00Z,27.3400,-84.2750,0.0,24.05,2 
Scripps,ioos:station:wmo:42099:1,2017-05-01T04:30:00Z,27.3400,-84.2750,0.0,24.05,2 
Scripps,ioos:station:wmo:42099:1,2017-05-01T05:00:00Z,27.3400,-84.2750,0.0,24.05,2 
Scripps,ioos:station:wmo:42099:1,2017-05-01T06:30:00Z,27.3400,-84.2750,0.0,24.05,2 
Scripps,ioos:station:wmo:42099:1,2017-05-01T07:30:00Z,27.3400,-84.2750,0.0,24.0,2 
Scripps,ioos:station:wmo:42099:1,2017-05-01T14:30:00Z,27.3400,-84.2750,0.0,24.0,2 
Scripps,ioos:station:wmo:42099:1,2017-05-01T15:30:00Z,27.3400,-84.2750,0.0,24.05,2 
Scripps,ioos:station:wmo:42099:1,2017-05-01T16:30:00Z,27.3400,-84.2750,0.0,24.15,2 
Scripps,ioos:station:wmo:42099:1,2017-05-01T17:30:00Z,27.3400,-84.2750,0.0,24.15,2 
Scripps,ioos:station:wmo:42099:1,2017-05-01T18:30:00Z,27.3400,-84.2750,0.0,24.15,2 
Scripps,ioos:station:wmo:42099:1,2017-05-01T19:30:00Z,27.3400,-84.2750,0.0,24.15,2 
Scripps,ioos:station:wmo:42099:1,2017-05-01T20:30:00Z,27.3400,-84.2750,0.0,24.25,2 
Scripps,ioos:station:wmo:42099:1,2017-05-02T00:30:00Z,27.3400,-84.2750,0.0,24.85,2 
Scripps,ioos:station:wmo:42099:1,2017-05-02T02:30:00Z,27.3400,-84.2750,0.0,24.8,2 
Scripps,ioos:station:wmo:42099:1,2017-05-02T03:00:00Z,27.3400,-84.2750,0.0,24.85,2 
Scripps,ioos:station:wmo:42099:1,2017-05-02T04:30:00Z,27.3400,-84.2750,0.0,24.8,2 
Scripps,ioos:station:wmo:42099:1,2017-05-02T05:30:00Z,27.3400,-84.2750,0.0,24.9,2 
Scripps,ioos:station:wmo:42099:1,2017-05-02T06:30:00Z,27.3400,-84.2750,0.0,24.7,2 
Scripps,ioos:station:wmo:42099:1,2017-05-02T07:30:00Z,27.3400,-84.2750,0.0,24.7,2 
Scripps,ioos:station:wmo:42099:1,2017-05-02T08:30:00Z,27.3400,-84.2750,0.0,24.4,2 
Scripps,ioos:station:wmo:42099:1,2017-05-02T09:30:00Z,27.3400,-84.2750,0.0,24.25,2 
Scripps,ioos:station:wmo:42099:1,2017-05-02T10:30:00Z,27.3400,-84.2750,0.0,24.05,2 
Scripps,ioos:station:wmo:42099:1,2017-05-02T11:30:00Z,27.3400,-84.2750,0.0,23.95,2 
Scripps,ioos:station:wmo:42099:1,2017-05-02T13:00:00Z,27.3400,-84.2750,0.0,23.85,2 
Scripps,ioos:station:wmo:42099:1,2017-05-02T16:00:00Z,27.3400,-84.2750,0.0,23.95,2 
Scripps,ioos:station:wmo:42099:1,2017-05-02T18:30:00Z,27.3400,-84.2750,0.0,24.0,2 
Scripps,ioos:station:wmo:42099:1,2017-05-02T19:00:00Z,27.3400,-84.2750,0.0,24.0,2 
Scripps,ioos:station:wmo:42099:1,2017-05-02T21:30:00Z,27.3400,-84.2750,0.0,24.0,2 
Scripps,ioos:station:wmo:42099:1,2017-05-03T00:30:00Z,27.3400,-84.2750,0.0,24.2,2 
Scripps,ioos:station:wmo:42099:1,2017-05-03T01:30:00Z,27.3400,-84.2750,0.0,24.2,2 
Scripps,ioos:station:wmo:42099:1,2017-05-03T09:30:00Z,27.3400,-84.2750,0.0,23.9,2 
Scripps,ioos:station:wmo:42099:1,2017-05-03T14:00:00Z,27.3400,-84.2750,0.0,24.0,2 
Scripps,ioos:station:wmo:42099:1,2017-05-03T15:30:00Z,27.3400,-84.2750,0.0,24.15,2 
Scripps,ioos:station:wmo:42099:1,2017-05-04T03:30:00Z,27.3400,-84.2750,0.0,25.45,2 
Scripps,ioos:station:wmo:42099:1,2017-05-04T04:30:00Z,27.3400,-84.2750,0.0,25.5,2 
Scripps,ioos:station:wmo:42099:1,2017-05-04T05:30:00Z,27.3400,-84.2750,0.0,25.3,2 
Scripps,ioos:station:wmo:42099:1,2017-05-04T06:30:00Z,27.3400,-84.2750,0.0,25.35,2 
Scripps,ioos:station:wmo:42099:1,2017-05-04T07:30:00Z,27.3400,-84.2750,0.0,25.2,2 
Scripps,ioos:station:wmo:42099:1,2017-05-04T08:30:00Z,27.3400,-84.2750,0.0,25.1,2 
Scripps,ioos:station:wmo:42099:1,2017-05-04T09:00:00Z,27.3400,-84.2750,0.0,25.1,2 
Scripps,ioos:station:wmo:42099:1,2017-05-04T10:00:00Z,27.3400,-84.2750,0.0,25.25,2 
Scripps,ioos:station:wmo:42099:1,2017-05-04T13:30:00Z,27.3400,-84.2750,0.0,25.0,2 
Scripps,ioos:station:wmo:42099:1,2017-05-04T15:30:00Z,27.3400,-84.2750,0.0,24.9,2 
Scripps,ioos:station:wmo:42099:1,2017-05-04T16:30:00Z,27.3400,-84.2750,0.0,25.1,2 
Scripps,ioos:station:wmo:42099:1,2017-05-04T17:00:00Z,27.3400,-84.2750,0.0,25.25,2 
Scripps,ioos:station:wmo:42099:1,2017-05-04T18:30:00Z,27.3400,-84.2750,0.0,25.55,2 
Scripps,ioos:station:wmo:42099:1,2017-05-04T19:00:00Z,27.3400,-84.2750,0.0,25.5,2 
Scripps,ioos:station:wmo:42099:1,2017-05-04T20:30:00Z,27.3400,-84.2750,0.0,25.55,2 
Scripps,ioos:station:wmo:42099:1,2017-05-04T21:30:00Z,27.3400,-84.2750,0.0,25.65,2 
Scripps,ioos:station:wmo:42099:1,2017-05-04T23:00:00Z,27.3400,-84.2750,0.0,25.7,2 
Scripps,ioos:station:wmo:42099:1,2017-05-05T03:30:00Z,27.3400,-84.2750,0.0,25.35,2 
Scripps,ioos:station:wmo:42099:1,2017-05-05T05:00:00Z,27.3400,-84.2750,0.0,25.0,2 
Scripps,ioos:station:wmo:42099:1,2017-05-05T06:30:00Z,27.3400,-84.2750,0.0,24.55,2 
Scripps,ioos:station:wmo:42099:1,2017-05-05T11:30:00Z,27.3400,-84.2750,0.0,23.95,2 
Scripps,ioos:station:wmo:42099:1,2017-05-05T12:30:00Z,27.3400,-84.2750,0.0,23.95,2 
Scripps,ioos:station:wmo:42099:1,2017-05-05T14:30:00Z,27.3400,-84.2750,0.0,24.0,2 
Scripps,ioos:station:wmo:42099:1,2017-05-05T15:30:00Z,27.3400,-84.2750,0.0,23.95,2 
Scripps,ioos:station:wmo:42099:1,2017-05-05T16:30:00Z,27.3400,-84.2750,0.0,23.95,2 
Scripps,ioos:station:wmo:42099:1,2017-05-05T17:00:00Z,27.3400,-84.2750,0.0,23.95,2 
Scripps,ioos:station:wmo:42099:1,2017-05-05T20:30:00Z,27.3400,-84.2750,0.0,24.0,2 
Scripps,ioos:station:wmo:42099:1,2017-05-05T21:00:00Z,27.3400,-84.2750,0.0,23.95,2 
Scripps,ioos:station:wmo:42099:1,2017-05-05T23:00:00Z,27.3400,-84.2750,0.0,23.95,2 
Scripps,ioos:station:wmo:42099:1,2017-05-06T03:00:00Z,27.3400,-84.2750,0.0,23.85,2 
Scripps,ioos:station:wmo:42099:1,2017-05-06T07:30:00Z,27.3400,-84.2750,0.0,23.8,2 
Scripps,ioos:station:wmo:42099:1,2017-05-06T10:30:00Z,27.3400,-84.2750,0.0,23.55,2 
Scripps,ioos:station:wmo:42099:1,2017-05-06T11:30:00Z,27.3400,-84.2750,0.0,23.55,2 
Scripps,ioos:station:wmo:42099:1,2017-05-06T12:30:00Z,27.3400,-84.2750,0.0,23.55,2 
Scripps,ioos:station:wmo:42099:1,2017-05-06T13:30:00Z,27.3400,-84.2750,0.0,23.5,2 
Scripps,ioos:station:wmo:42099:1,2017-05-06T14:30:00Z,27.3400,-84.2750,0.0,23.5,2 
Scripps,ioos:station:wmo:42099:1,2017-05-06T15:30:00Z,27.3400,-84.2750,0.0,23.55,2 
Scripps,ioos:station:wmo:42099:1,2017-05-06T16:30:00Z,27.3400,-84.2750,0.0,23.55,2 
Scripps,ioos:station:wmo:42099:1,2017-05-06T17:30:00Z,27.3400,-84.2750,0.0,23.6,2 
Scripps,ioos:station:wmo:42099:1,2017-05-06T18:30:00Z,27.3400,-84.2750,0.0,23.6,2 
Scripps,ioos:station:wmo:42099:1,2017-05-06T19:30:00Z,27.3400,-84.2750,0.0,23.6,2 
Scripps,ioos:station:wmo:42099:1,2017-05-06T21:00:00Z,27.3400,-84.2750,0.0,23.6,2 
Scripps,ioos:station:wmo:42099:1,2017-05-06T22:30:00Z,27.3400,-84.2750,0.0,23.6,2 
Scripps,ioos:station:wmo:42099:1,2017-05-06T23:00:00Z,27.3400,-84.2750,0.0,23.6,2 
Scripps,ioos:station:wmo:42099:1,2017-05-07T01:30:00Z,27.3400,-84.2750,0.0,23.55,2 
Scripps,ioos:station:wmo:42099:1,2017-05-07T02:00:00Z,27.3400,-84.2750,0.0,23.5,2 
Scripps,ioos:station:wmo:42099:1,2017-05-07T03:30:00Z,27.3400,-84.2750,0.0,23.5,2 
Scripps,ioos:station:wmo:42099:1,2017-05-07T04:30:00Z,27.3400,-84.2750,0.0,23.5,2 
Scripps,ioos:station:wmo:42099:1,2017-05-07T05:30:00Z,27.3400,-84.2750,0.0,23.5,2 
Scripps,ioos:station:wmo:42099:1,2017-05-07T06:30:00Z,27.3400,-84.2750,0.0,23.45,2 
Scripps,ioos:station:wmo:42099:1,2017-05-07T08:30:00Z,27.3400,-84.2750,0.0,23.3,2 
Scripps,ioos:station:wmo:42099:1,2017-05-07T09:30:00Z,27.3400,-84.2750,0.0,23.25,2 
Scripps,ioos:station:wmo:42099:1,2017-05-07T10:30:00Z,27.3400,-84.2750,0.0,23.25,2 
Scripps,ioos:station:wmo:42099:1,2017-05-07T11:30:00Z,27.3400,-84.2750,0.0,23.25,2 
Scripps,ioos:station:wmo:42099:1,2017-05-07T15:00:00Z,27.3400,-84.2750,0.0,23.3,2 
Scripps,ioos:station:wmo:42099:1,2017-05-07T18:30:00Z,27.3400,-84.2750,0.0,23.75,2 
Scripps,ioos:station:wmo:42099:1,2017-05-07T22:30:00Z,27.3400,-84.2750,0.0,23.7,2 
Scripps,ioos:station:wmo:42099:1,2017-05-07T23:30:00Z,27.3400,-84.2750,0.0,23.65,2 
Scripps,ioos:station:wmo:42099:1,2017-05-08T00:30:00Z,27.3400,-84.2750,0.0,23.6,2 
Scripps,ioos:station:wmo:42099:1,2017-05-08T01:00:00Z,27.3400,-84.2750,0.0,23.55,2 
Scripps,ioos:station:wmo:42099:1,2017-05-08T03:30:00Z,27.3400,-84.2750,0.0,23.45,2 
Scripps,ioos:station:wmo:42099:1,2017-05-08T11:30:00Z,27.3400,-84.2750,0.0,23.2,2 
Scripps,ioos:station:wmo:42099:1,2017-05-08T12:30:00Z,27.3400,-84.2750,0.0,23.15,2 
Scripps,ioos:station:wmo:42099:1,2017-05-08T13:00:00Z,27.3400,-84.2750,0.0,23.15,2 
Scripps,ioos:station:wmo:42099:1,2017-05-08T19:00:00Z,27.3400,-84.2750,0.0,24.15,2 
Scripps,ioos:station:wmo:42099:1,2017-05-08T22:30:00Z,27.3400,-84.2750,0.0,24.2,2 
Scripps,ioos:station:wmo:42099:1,2017-05-08T23:00:00Z,27.3400,-84.2750,0.0,24.15,2 
Scripps,ioos:station:wmo:42099:1,2017-05-09T03:30:00Z,27.3400,-84.2750,0.0,23.65,2 
Scripps,ioos:station:wmo:42099:1,2017-05-09T04:00:00Z,27.3400,-84.2750,0.0,23.65,2 
Scripps,ioos:station:wmo:42099:1,2017-05-09T05:30:00Z,27.3400,-84.2750,0.0,23.6,2 
Scripps,ioos:station:wmo:42099:1,2017-05-09T06:30:00Z,27.3400,-84.2750,0.0,23.55,2 
Scripps,ioos:station:wmo:42099:1,2017-05-09T07:30:00Z,27.3400,-84.2750,0.0,23.55,2 
Scripps,ioos:station:wmo:42099:1,2017-05-09T08:30:00Z,27.3400,-84.2750,0.0,23.5,2 
Scripps,ioos:station:wmo:42099:1,2017-05-09T09:30:00Z,27.3400,-84.2750,0.0,23.35,2 
Scripps,ioos:station:wmo:42099:1,2017-05-09T10:30:00Z,27.3400,-84.2750,0.0,23.3,2 
Scripps,ioos:station:wmo:42099:1,2017-05-09T11:30:00Z,27.3400,-84.2750,0.0,23.35,2 
Scripps,ioos:station:wmo:42099:1,2017-05-09T12:30:00Z,27.3400,-84.2750,0.0,23.4,2 
Scripps,ioos:station:wmo:42099:1,2017-05-09T13:00:00Z,27.3400,-84.2750,0.0,23.45,2 
Scripps,ioos:station:wmo:42099:1,2017-05-09T14:30:00Z,27.3400,-84.2750,0.0,23.55,2 
Scripps,ioos:station:wmo:42099:1,2017-05-09T15:00:00Z,27.3400,-84.2750,0.0,23.65,2 
Scripps,ioos:station:wmo:42099:1,2017-05-09T16:30:00Z,27.3400,-84.2750,0.0,24.1,2 
Scripps,ioos:station:wmo:42099:1,2017-05-09T17:30:00Z,27.3400,-84.2750,0.0,24.6,2 
Scripps,ioos:station:wmo:42099:1,2017-05-09T18:30:00Z,27.3400,-84.2750,0.0,25.4,2 
Scripps,ioos:station:wmo:42099:1,2017-05-09T19:30:00Z,27.3400,-84.2750,0.0,26.7,2 
Scripps,ioos:station:wmo:42099:1,2017-05-09T20:30:00Z,27.3400,-84.2750,0.0,26.6,2 
Scripps,ioos:station:wmo:42099:1,2017-05-09T21:30:00Z,27.3400,-84.2750,0.0,26.9,2 
Scripps,ioos:station:wmo:42099:1,2017-05-09T22:30:00Z,27.3400,-84.2750,0.0,25.5,2 
Scripps,ioos:station:wmo:42099:1,2017-05-09T23:00:00Z,27.3400,-84.2750,0.0,25.75,2 
Scripps,ioos:station:wmo:42099:1,2017-05-10T03:00:00Z,27.3400,-84.2750,0.0,24.05,2 
Scripps,ioos:station:wmo:42099:1,2017-05-10T04:30:00Z,27.3400,-84.2750,0.0,23.6,2 
Scripps,ioos:station:wmo:42099:1,2017-05-10T05:30:00Z,27.3400,-84.2750,0.0,23.55,2 
Scripps,ioos:station:wmo:42099:1,2017-05-10T06:30:00Z,27.3400,-84.2750,0.0,23.7,2 
Scripps,ioos:station:wmo:42099:1,2017-05-10T07:30:00Z,27.3400,-84.2750,0.0,23.95,2 
Scripps,ioos:station:wmo:42099:1,2017-05-10T08:30:00Z,27.3400,-84.2750,0.0,23.75,2 
Scripps,ioos:station:wmo:42099:1,2017-05-10T09:30:00Z,27.3400,-84.2750,0.0,23.85,2 
Scripps,ioos:station:wmo:42099:1,2017-05-10T10:30:00Z,27.3400,-84.2750,0.0,23.95,2 
Scripps,ioos:station:wmo:42099:1,2017-05-10T11:30:00Z,27.3400,-84.2750,0.0,23.9,2 
Scripps,ioos:station:wmo:42099:1,2017-05-10T12:30:00Z,27.3400,-84.2750,0.0,23.9,2 
Scripps,ioos:station:wmo:42099:1,2017-05-10T13:00:00Z,27.3400,-84.2750,0.0,23.9,2 
Scripps,ioos:station:wmo:42099:1,2017-05-10T17:30:00Z,27.3400,-84.2750,0.0,25.2,2 
Scripps,ioos:station:wmo:42099:1,2017-05-10T19:00:00Z,27.3400,-84.2750,0.0,25.5,2 
Scripps,ioos:station:wmo:42099:1,2017-05-10T20:30:00Z,27.3400,-84.2750,0.0,26.35,2 
Scripps,ioos:station:wmo:42099:1,2017-05-10T21:30:00Z,27.3400,-84.2750,0.0,25.9,2 
Scripps,ioos:station:wmo:42099:1,2017-05-10T22:30:00Z,27.3400,-84.2750,0.0,25.7,2 
Scripps,ioos:station:wmo:42099:1,2017-05-11T00:00:00Z,27.3400,-84.2750,0.0,25.3,2 
Scripps,ioos:station:wmo:42099:1,2017-05-11T01:30:00Z,27.3400,-84.2750,0.0,25.0,2 
Scripps,ioos:station:wmo:42099:1,2017-05-11T03:00:00Z,27.3400,-84.2750,0.0,24.45,2 
Scripps,ioos:station:wmo:42099:1,2017-05-11T04:30:00Z,27.3400,-84.2750,0.0,24.25,2 
Scripps,ioos:station:wmo:42099:1,2017-05-11T05:30:00Z,27.3400,-84.2750,0.0,24.05,2 
Scripps,ioos:station:wmo:42099:1,2017-05-11T06:30:00Z,27.3400,-84.2750,0.0,24.1,2 
Scripps,ioos:station:wmo:42099:1,2017-05-11T07:30:00Z,27.3400,-84.2750,0.0,24.2,2 
Scripps,ioos:station:wmo:42099:1,2017-05-11T08:30:00Z,27.3400,-84.2750,0.0,24.25,2 
Scripps,ioos:station:wmo:42099:1,2017-05-11T09:30:00Z,27.3400,-84.2750,0.0,24.35,2 
Scripps,ioos:station:wmo:42099:1,2017-05-11T10:00:00Z,27.3400,-84.2750,0.0,24.4,2 
Scripps,ioos:station:wmo:42099:1,2017-05-11T11:30:00Z,27.3400,-84.2750,0.0,24.45,2 
Scripps,ioos:station:wmo:42099:1,2017-05-11T12:30:00Z,27.3400,-84.2750,0.0,24.25,2 
Scripps,ioos:station:wmo:42099:1,2017-05-11T13:00:00Z,27.3400,-84.2750,0.0,24.1,2 
Scripps,ioos:station:wmo:42099:1,2017-05-11T16:30:00Z,27.3400,-84.2750,0.0,25.75,2 
Scripps,ioos:station:wmo:42099:1,2017-05-11T17:30:00Z,27.3400,-84.2750,0.0,26.45,2 
Scripps,ioos:station:wmo:42099:1,2017-05-11T18:30:00Z,27.3400,-84.2750,0.0,27.4,2 
Scripps,ioos:station:wmo:42099:1,2017-05-11T19:30:00Z,27.3400,-84.2750,0.0,26.8,2 
Scripps,ioos:station:wmo:42099:1,2017-05-11T20:30:00Z,27.3400,-84.2750,0.0,27.8,2 
Scripps,ioos:station:wmo:42099:1,2017-05-11T21:30:00Z,27.3400,-84.2750,0.0,27.35,2 
Scripps,ioos:station:wmo:42099:1,2017-05-11T23:00:00Z,27.3400,-84.2750,0.0,26.0,2 
Scripps,ioos:station:wmo:42099:1,2017-05-12T02:30:00Z,27.3400,-84.2750,0.0,25.6,2 
Scripps,ioos:station:wmo:42099:1,2017-05-12T03:30:00Z,27.3400,-84.2750,0.0,25.4,2 
Scripps,ioos:station:wmo:42099:1,2017-05-12T04:30:00Z,27.3400,-84.2750,0.0,25.0,2 
Scripps,ioos:station:wmo:42099:1,2017-05-12T05:30:00Z,27.3400,-84.2750,0.0,24.6,2 
Scripps,ioos:station:wmo:42099:1,2017-05-12T06:30:00Z,27.3400,-84.2750,0.0,24.5,2 
Scripps,ioos:station:wmo:42099:1,2017-05-12T07:30:00Z,27.3400,-84.2750,0.0,24.55,2 
Scripps,ioos:station:wmo:42099:1,2017-05-12T08:30:00Z,27.3400,-84.2750,0.0,24.6,2 
Scripps,ioos:station:wmo:42099:1,2017-05-12T09:30:00Z,27.3400,-84.2750,0.0,24.5,2 
Scripps,ioos:station:wmo:42099:1,2017-05-12T10:30:00Z,27.3400,-84.2750,0.0,24.45,2 
Scripps,ioos:station:wmo:42099:1,2017-05-12T11:30:00Z,27.3400,-84.2750,0.0,24.3,2 
Scripps,ioos:station:wmo:42099:1,2017-05-12T12:30:00Z,27.3400,-84.2750,0.0,24.3,2 
Scripps,ioos:station:wmo:42099:1,2017-05-12T13:00:00Z,27.3400,-84.2750,0.0,24.3,2 
Scripps,ioos:station:wmo:42099:1,2017-05-12T14:30:00Z,27.3400,-84.2750,0.0,24.5,2 
Scripps,ioos:station:wmo:42099:1,2017-05-12T15:30:00Z,27.3400,-84.2750,0.0,24.6,2 
Scripps,ioos:station:wmo:42099:1,2017-05-12T16:30:00Z,27.3400,-84.2750,0.0,24.6,2 
Scripps,ioos:station:wmo:42099:1,2017-05-12T17:30:00Z,27.3400,-84.2750,0.0,24.45,2 
Scripps,ioos:station:wmo:42099:1,2017-05-12T18:30:00Z,27.3400,-84.2750,0.0,24.45,2 
Scripps,ioos:station:wmo:42099:1,2017-05-12T19:30:00Z,27.3400,-84.2750,0.0,24.5,2 
Scripps,ioos:station:wmo:42099:1,2017-05-12T20:30:00Z,27.3400,-84.2750,0.0,24.35,2 
Scripps,ioos:station:wmo:42099:1,2017-05-12T21:30:00Z,27.3400,-84.2750,0.0,24.5,2 
Scripps,ioos:station:wmo:42099:1,2017-05-12T22:00:00Z,27.3400,-84.2750,0.0,24.55,2 
Scripps,ioos:station:wmo:42099:1,2017-05-14T14:30:00Z,27.3400,-84.2750,0.0,24.15,2 
Scripps,ioos:station:wmo:42099:1,2017-05-14T15:30:00Z,27.3400,-84.2750,0.0,24.25,2 
Scripps,ioos:station:wmo:42099:1,2017-05-14T16:30:00Z,27.3400,-84.2750,0.0,24.45,2 
Scripps,ioos:station:wmo:42099:1,2017-05-14T17:30:00Z,27.3400,-84.2750,0.0,24.7,2 
Scripps,ioos:station:wmo:42099:1,2017-05-14T18:30:00Z,27.3400,-84.2750,0.0,24.8,2 
Scripps,ioos:station:wmo:42099:1,2017-05-14T19:30:00Z,27.3400,-84.2750,0.0,24.85,2 
Scripps,ioos:station:wmo:42099:1,2017-05-14T20:30:00Z,27.3400,-84.2750,0.0,24.9,2 
Scripps,ioos:station:wmo:42099:1,2017-05-14T21:30:00Z,27.3400,-84.2750,0.0,24.9,2 
Scripps,ioos:station:wmo:42099:1,2017-05-15T00:00:00Z,27.3400,-84.2750,0.0,24.8,2 
Scripps,ioos:station:wmo:42099:1,2017-05-15T01:30:00Z,27.3400,-84.2750,0.0,24.5,2 
Scripps,ioos:station:wmo:42099:1,2017-05-15T03:30:00Z,27.3400,-84.2750,0.0,24.3,2 
Scripps,ioos:station:wmo:42099:1,2017-05-15T04:30:00Z,27.3400,-84.2750,0.0,24.3,2 
Scripps,ioos:station:wmo:42099:1,2017-05-15T05:30:00Z,27.3400,-84.2750,0.0,24.35,2 
Scripps,ioos:station:wmo:42099:1,2017-05-15T06:30:00Z,27.3400,-84.2750,0.0,24.3,2 
Scripps,ioos:station:wmo:42099:1,2017-05-15T07:30:00Z,27.3400,-84.2750,0.0,24.3,2 
Scripps,ioos:station:wmo:42099:1,2017-05-15T08:30:00Z,27.3400,-84.2750,0.0,24.35,2 
Scripps,ioos:station:wmo:42099:1,2017-05-15T09:30:00Z,27.3400,-84.2750,0.0,24.3,2 
Scripps,ioos:station:wmo:42099:1,2017-05-15T10:30:00Z,27.3400,-84.2750,0.0,24.25,2 
Scripps,ioos:station:wmo:42099:1,2017-05-15T11:30:00Z,27.3400,-84.2750,0.0,24.3,2 
Scripps,ioos:station:wmo:42099:1,2017-05-15T12:30:00Z,27.3400,-84.2750,0.0,24.3,2 
Scripps,ioos:station:wmo:42099:1,2017-05-15T13:00:00Z,27.3400,-84.2750,0.0,24.3,2 
Scripps,ioos:station:wmo:42099:1,2017-05-15T14:30:00Z,27.3400,-84.2750,0.0,24.45,2 
Scripps,ioos:station:wmo:42099:1,2017-05-15T15:30:00Z,27.3400,-84.2750,0.0,24.6,2 
Scripps,ioos:station:wmo:42099:1,2017-05-15T16:30:00Z,27.3400,-84.2750,0.0,24.8,2 
Scripps,ioos:station:wmo:42099:1,2017-05-15T17:30:00Z,27.3400,-84.2750,0.0,24.8,2 
Scripps,ioos:station:wmo:42099:1,2017-05-15T18:30:00Z,27.3400,-84.2750,0.0,24.9,2 
Scripps,ioos:station:wmo:42099:1,2017-05-15T19:30:00Z,27.3400,-84.2750,0.0,25.0,2 
Scripps,ioos:station:wmo:42099:1,2017-05-15T21:00:00Z,27.3400,-84.2750,0.0,25.1,2 
Scripps,ioos:station:wmo:42099:1,2017-05-15T21:30:00Z,27.3400,-84.2750,0.0,25.15,2 
Scripps,ioos:station:wmo:42099:1,2017-05-15T23:00:00Z,27.3400,-84.2750,0.0,25.05,2 
Scripps,ioos:station:wmo:42099:1,2017-05-16T03:30:00Z,27.3400,-84.2750,0.0,24.6,2 
Scripps,ioos:station:wmo:42099:1,2017-05-16T08:00:00Z,27.3400,-84.2750,0.0,24.55,2 
Scripps,ioos:station:wmo:42099:1,2017-05-16T11:30:00Z,27.3400,-84.2750,0.0,24.45,2 
Scripps,ioos:station:wmo:42099:1,2017-05-16T14:00:00Z,27.3400,-84.2750,0.0,24.4,2 
Scripps,ioos:station:wmo:42099:1,2017-05-16T14:30:00Z,27.3400,-84.2750,0.0,24.45,2 
Scripps,ioos:station:wmo:42099:1,2017-05-16T15:30:00Z,27.3400,-84.2750,0.0,24.55,2 
Scripps,ioos:station:wmo:42099:1,2017-05-16T16:30:00Z,27.3400,-84.2750,0.0,24.65,2 
Scripps,ioos:station:wmo:42099:1,2017-05-16T17:30:00Z,27.3400,-84.2750,0.0,24.75,2 
Scripps,ioos:station:wmo:42099:1,2017-05-16T19:30:00Z,27.3400,-84.2750,0.0,24.85,2 
Scripps,ioos:station:wmo:42099:1,2017-05-16T20:30:00Z,27.3400,-84.2750,0.0,24.95,2 
Scripps,ioos:station:wmo:42099:1,2017-05-16T21:30:00Z,27.3400,-84.2750,0.0,25.2,2 
Scripps,ioos:station:wmo:42099:1,2017-05-16T22:30:00Z,27.3400,-84.2750,0.0,25.2,2 
Scripps,ioos:station:wmo:42099:1,2017-05-16T23:00:00Z,27.3400,-84.2750,0.0,25.15,2 
Scripps,ioos:station:wmo:42099:1,2017-05-18T14:00:00Z,27.3400,-84.2750,0.0,24.55,2 
Scripps,ioos:station:wmo:42099:1,2017-05-18T15:30:00Z,27.3400,-84.2750,0.0,24.6,2 
Scripps,ioos:station:wmo:42099:1,2017-05-18T18:00:00Z,27.3400,-84.2750,0.0,24.65,2 
Scripps,ioos:station:wmo:42099:1,2017-05-18T19:30:00Z,27.3400,-84.2750,0.0,24.8,2 
Scripps,ioos:station:wmo:42099:1,2017-05-18T20:00:00Z,27.3400,-84.2750,0.0,24.9,2 
Scripps,ioos:station:wmo:42099:1,2017-05-18T22:30:00Z,27.3400,-84.2750,0.0,25.1,2 
Scripps,ioos:station:wmo:42099:1,2017-05-19T00:30:00Z,27.3400,-84.2750,0.0,24.9,2 
Scripps,ioos:station:wmo:42099:1,2017-05-19T02:00:00Z,27.3400,-84.2750,0.0,24.85,2 
Scripps,ioos:station:wmo:42099:1,2017-05-19T03:30:00Z,27.3400,-84.2750,0.0,25.05,2 
Scripps,ioos:station:wmo:42099:1,2017-05-19T04:30:00Z,27.3400,-84.2750,0.0,25.05,2 
Scripps,ioos:station:wmo:42099:1,2017-05-19T05:30:00Z,27.3400,-84.2750,0.0,25.05,2 
Scripps,ioos:station:wmo:42099:1,2017-05-19T06:30:00Z,27.3400,-84.2750,0.0,24.95,2 
Scripps,ioos:station:wmo:42099:1,2017-05-19T07:30:00Z,27.3400,-84.2750,0.0,24.9,2 
Scripps,ioos:station:wmo:42099:1,2017-05-19T08:30:00Z,27.3400,-84.2750,0.0,24.8,2 
Scripps,ioos:station:wmo:42099:1,2017-05-19T09:30:00Z,27.3400,-84.2750,0.0,24.8,2 
Scripps,ioos:station:wmo:42099:1,2017-05-19T10:30:00Z,27.3400,-84.2750,0.0,24.75,2 
Scripps,ioos:station:wmo:42099:1,2017-05-19T11:30:00Z,27.3400,-84.2750,0.0,24.7,2 
Scripps,ioos:station:wmo:42099:1,2017-05-19T12:30:00Z,27.3400,-84.2750,0.0,24.7,2 
Scripps,ioos:station:wmo:42099:1,2017-05-19T14:30:00Z,27.3400,-84.2750,0.0,24.75,2 
Scripps,ioos:station:wmo:42099:1,2017-05-19T15:30:00Z,27.3400,-84.2750,0.0,24.75,2 
Scripps,ioos:station:wmo:42099:1,2017-05-19T16:30:00Z,27.3400,-84.2750,0.0,24.85,2 
Scripps,ioos:station:wmo:42099:1,2017-05-19T17:00:00Z,27.3400,-84.2750,0.0,24.85,2 
Scripps,ioos:station:wmo:42099:1,2017-05-19T18:30:00Z,27.3400,-84.2750,0.0,25.05,2 
Scripps,ioos:station:wmo:42099:1,2017-05-19T20:30:00Z,27.3400,-84.2750,0.0,25.3,2 
Scripps,ioos:station:wmo:42099:1,2017-05-19T21:00:00Z,27.3400,-84.2750,0.0,25.2,2 
Scripps,ioos:station:wmo:42099:1,2017-05-20T01:00:00Z,27.3400,-84.2750,0.0,25.4,2 
Scripps,ioos:station:wmo:42099:1,2017-05-20T03:00:00Z,27.3400,-84.2750,0.0,25.35,2 
Scripps,ioos:station:wmo:42099:1,2017-05-20T04:00:00Z,27.3400,-84.2750,0.0,25.35,2 
Scripps,ioos:station:wmo:42099:1,2017-05-20T05:00:00Z,27.3400,-84.2750,0.0,25.35,2 
Scripps,ioos:station:wmo:42099:1,2017-05-20T06:00:00Z,27.3400,-84.2750,0.0,25.3,2 
Scripps,ioos:station:wmo:42099:1,2017-05-20T07:00:00Z,27.3400,-84.2750,0.0,25.35,2 
Scripps,ioos:station:wmo:42099:1,2017-05-20T09:30:00Z,27.3400,-84.2750,0.0,25.25,2 
Scripps,ioos:station:wmo:42099:1,2017-05-20T10:30:00Z,27.3400,-84.2750,0.0,25.2,2 
Scripps,ioos:station:wmo:42099:1,2017-05-20T11:30:00Z,27.3400,-84.2750,0.0,25.1,2 
Scripps,ioos:station:wmo:42099:1,2017-05-20T12:30:00Z,27.3400,-84.2750,0.0,25.05,2 
Scripps,ioos:station:wmo:42099:1,2017-05-20T13:00:00Z,27.3400,-84.2750,0.0,25.0,2 
Scripps,ioos:station:wmo:42099:1,2017-05-20T15:00:00Z,27.3400,-84.2750,0.0,25.0,2 
Scripps,ioos:station:wmo:42099:1,2017-05-20T17:30:00Z,27.3400,-84.2750,0.0,25.1,2 
Scripps,ioos:station:wmo:42099:1,2017-05-20T18:30:00Z,27.3400,-84.2750,0.0,25.05,2 
Scripps,ioos:station:wmo:42099:1,2017-05-20T19:30:00Z,27.3400,-84.2750,0.0,25.15,2 
Scripps,ioos:station:wmo:42099:1,2017-05-20T21:30:00Z,27.3400,-84.2750,0.0,25.4,2 
Scripps,ioos:station:wmo:42099:1,2017-05-20T22:30:00Z,27.3400,-84.2750,0.0,25.45,2 
Scripps,ioos:station:wmo:42099:1,2017-05-20T23:00:00Z,27.3400,-84.2750,0.0,25.5,2 
Scripps,ioos:station:wmo:42099:1,2017-05-21T03:00:00Z,27.3400,-84.2750,0.0,25.55,2 
Scripps,ioos:station:wmo:42099:1,2017-05-21T04:30:00Z,27.3400,-84.2750,0.0,25.5,2 
Scripps,ioos:station:wmo:42099:1,2017-05-21T05:30:00Z,27.3400,-84.2750,0.0,25.5,2 
Scripps,ioos:station:wmo:42099:1,2017-05-21T06:30:00Z,27.3400,-84.2750,0.0,25.5,2 
Scripps,ioos:station:wmo:42099:1,2017-05-21T07:30:00Z,27.3400,-84.2750,0.0,25.4,2 
Scripps,ioos:station:wmo:42099:1,2017-05-21T08:30:00Z,27.3400,-84.2750,0.0,25.3,2 
Scripps,ioos:station:wmo:42099:1,2017-05-21T09:30:00Z,27.3400,-84.2750,0.0,25.25,2 
Scripps,ioos:station:wmo:42099:1,2017-05-21T10:00:00Z,27.3400,-84.2750,0.0,25.2,2 
Scripps,ioos:station:wmo:42099:1,2017-05-21T11:00:00Z,27.3400,-84.2750,0.0,25.2,2 
Scripps,ioos:station:wmo:42099:1,2017-05-21T13:00:00Z,27.3400,-84.2750,0.0,25.2,2 
Scripps,ioos:station:wmo:42099:1,2017-05-21T14:30:00Z,27.3400,-84.2750,0.0,25.35,2 
Scripps,ioos:station:wmo:42099:1,2017-05-21T15:00:00Z,27.3400,-84.2750,0.0,25.4,2 
Scripps,ioos:station:wmo:42099:1,2017-05-21T16:30:00Z,27.3400,-84.2750,0.0,25.85,2 
Scripps,ioos:station:wmo:42099:1,2017-05-21T17:00:00Z,27.3400,-84.2750,0.0,25.9,2 
Scripps,ioos:station:wmo:42099:1,2017-05-21T18:30:00Z,27.3400,-84.2750,0.0,25.9,2 
Scripps,ioos:station:wmo:42099:1,2017-05-21T19:30:00Z,27.3400,-84.2750,0.0,25.9,2 
Scripps,ioos:station:wmo:42099:1,2017-05-21T20:30:00Z,27.3400,-84.2750,0.0,26.0,2 
Scripps,ioos:station:wmo:42099:1,2017-05-21T21:00:00Z,27.3400,-84.2750,0.0,26.0,2 
Scripps,ioos:station:wmo:42099:1,2017-05-21T22:30:00Z,27.3400,-84.2750,0.0,25.95,2 
Scripps,ioos:station:wmo:42099:1,2017-05-21T23:00:00Z,27.3400,-84.2750,0.0,25.9,2 